Year,Month,Day,Hour,Minute,Value (Times are PST for temperature in C)
2010,08,12,00,00,25.70
2010,08,12,00,01,25.70
2010,08,12,00,02,25.70
2010,08,12,00,03,25.70
2010,08,12,00,04,25.70
2010,08,12,00,05,25.70
2010,08,12,00,06,25.70
2010,08,12,00,07,25.70
2010,08,12,00,08,25.70
2010,08,12,00,09,25.70
2010,08,12,00,10,25.70
2010,08,12,00,11,25.70
2010,08,12,00,12,25.70
2010,08,12,00,13,25.70
2010,08,12,00,14,25.70
2010,08,12,00,15,25.70
2010,08,12,00,16,25.70
2010,08,12,00,17,25.70
2010,08,12,00,18,25.70
2010,08,12,00,19,25.70
2010,08,12,00,20,25.70
2010,08,12,00,21,25.70
2010,08,12,00,22,25.70
2010,08,12,00,23,25.70
2010,08,12,00,24,25.70
2010,08,12,00,25,25.70
2010,08,12,00,26,25.70
2010,08,12,00,27,25.70
2010,08,12,00,28,25.70
2010,08,12,00,29,25.70
2010,08,12,00,30,25.70
2010,08,12,00,31,25.70
2010,08,12,00,32,25.70
2010,08,12,00,33,25.70
2010,08,12,00,34,25.70
2010,08,12,00,35,25.70
2010,08,12,00,36,25.70
2010,08,12,00,37,25.70
2010,08,12,00,38,25.70
2010,08,12,00,39,25.70
2010,08,12,00,40,25.70
2010,08,12,00,41,25.70
2010,08,12,00,42,25.70
2010,08,12,00,43,25.70
2010,08,12,00,44,25.70
2010,08,12,00,45,25.70
2010,08,12,00,46,25.70
2010,08,12,00,47,25.70
2010,08,12,00,48,25.70
2010,08,12,00,49,25.70
2010,08,12,00,50,25.70
2010,08,12,00,51,25.70
2010,08,12,00,52,25.70
2010,08,12,00,53,25.70
2010,08,12,00,54,25.70
2010,08,12,00,55,25.70
2010,08,12,00,56,25.70
2010,08,12,00,57,25.70
2010,08,12,00,58,25.70
2010,08,12,00,59,25.70
2010,08,12,01,00,25.70
2010,08,12,01,01,25.70
2010,08,12,01,02,25.70
2010,08,12,01,03,25.70
2010,08,12,01,04,25.70
2010,08,12,01,05,25.70
2010,08,12,01,06,25.70
2010,08,12,01,07,25.70
2010,08,12,01,08,25.70
2010,08,12,01,09,25.70
2010,08,12,01,10,25.70
2010,08,12,01,11,25.70
2010,08,12,01,12,25.70
2010,08,12,01,13,25.70
2010,08,12,01,14,25.70
2010,08,12,01,15,25.70
2010,08,12,01,16,25.70
2010,08,12,01,17,25.70
2010,08,12,01,18,25.70
2010,08,12,01,19,25.70
2010,08,12,01,20,25.70
2010,08,12,01,21,25.70
2010,08,12,01,22,25.70
2010,08,12,01,23,25.70
2010,08,12,01,24,25.70
2010,08,12,01,25,25.70
2010,08,12,01,26,25.70
2010,08,12,01,27,25.70
2010,08,12,01,28,25.70
2010,08,12,01,29,25.70
2010,08,12,01,30,25.70
2010,08,12,01,31,25.70
2010,08,12,01,32,25.70
2010,08,12,01,33,25.70
2010,08,12,01,34,25.70
2010,08,12,01,35,25.70
2010,08,12,01,36,25.70
2010,08,12,01,37,25.70
2010,08,12,01,38,25.70
2010,08,12,01,39,25.70
2010,08,12,01,40,25.70
2010,08,12,01,41,25.70
2010,08,12,01,42,25.70
2010,08,12,01,43,25.70
2010,08,12,01,44,25.70
2010,08,12,01,45,25.70
2010,08,12,01,46,25.70
2010,08,12,01,47,25.70
2010,08,12,01,48,25.70
2010,08,12,01,49,25.70
2010,08,12,01,50,25.70
2010,08,12,01,51,25.70
2010,08,12,01,52,25.70
2010,08,12,01,53,25.70
2010,08,12,01,54,25.70
2010,08,12,01,55,25.70
2010,08,12,01,56,25.70
2010,08,12,01,57,25.70
2010,08,12,01,58,25.70
2010,08,12,01,59,25.70
2010,08,12,02,00,25.70
2010,08,12,02,01,25.70
2010,08,12,02,02,25.70
2010,08,12,02,03,25.70
2010,08,12,02,04,25.70
2010,08,12,02,05,25.70
2010,08,12,02,06,25.70
2010,08,12,02,07,25.70
2010,08,12,02,08,25.70
2010,08,12,02,09,25.70
2010,08,12,02,10,25.70
2010,08,12,02,11,25.70
2010,08,12,02,12,25.70
2010,08,12,02,13,25.70
2010,08,12,02,14,25.70
2010,08,12,02,15,25.70
2010,08,12,02,16,25.70
2010,08,12,02,17,25.70
2010,08,12,02,18,25.70
2010,08,12,02,19,25.70
2010,08,12,02,20,25.70
2010,08,12,02,21,25.70
2010,08,12,02,22,25.70
2010,08,12,02,23,25.70
2010,08,12,02,24,25.70
2010,08,12,02,25,25.70
2010,08,12,02,26,25.70
2010,08,12,02,27,25.70
2010,08,12,02,28,25.70
2010,08,12,02,29,25.70
2010,08,12,02,30,25.70
2010,08,12,02,31,25.70
2010,08,12,02,32,25.70
2010,08,12,02,33,25.70
2010,08,12,02,34,25.70
2010,08,12,02,35,25.70
2010,08,12,02,36,25.70
2010,08,12,02,37,25.70
2010,08,12,02,38,25.70
2010,08,12,02,39,25.70
2010,08,12,02,40,25.70
2010,08,12,02,41,25.70
2010,08,12,02,42,25.70
2010,08,12,02,43,25.70
2010,08,12,02,44,25.70
2010,08,12,02,45,25.70
2010,08,12,02,46,25.70
2010,08,12,02,47,25.70
2010,08,12,02,48,25.70
2010,08,12,02,49,25.70
2010,08,12,02,50,25.70
2010,08,12,02,51,25.70
2010,08,12,02,52,25.70
2010,08,12,02,53,25.70
2010,08,12,02,54,25.70
2010,08,12,02,55,25.70
2010,08,12,02,56,25.70
2010,08,12,02,57,25.70
2010,08,12,02,58,25.70
2010,08,12,02,59,25.70
2010,08,12,03,00,25.70
2010,08,12,03,01,25.70
2010,08,12,03,02,25.70
2010,08,12,03,03,25.70
2010,08,12,03,04,25.70
2010,08,12,03,05,25.70
2010,08,12,03,06,25.70
2010,08,12,03,07,25.70
2010,08,12,03,08,25.70
2010,08,12,03,09,25.70
2010,08,12,03,10,25.70
2010,08,12,03,11,25.70
2010,08,12,03,12,25.70
2010,08,12,03,13,25.70
2010,08,12,03,14,25.70
2010,08,12,03,15,25.70
2010,08,12,03,16,25.70
2010,08,12,03,17,25.70
2010,08,12,03,18,25.70
2010,08,12,03,19,25.70
2010,08,12,03,20,25.70
2010,08,12,03,21,25.70
2010,08,12,03,22,25.70
2010,08,12,03,23,25.70
2010,08,12,03,24,25.70
2010,08,12,03,25,25.70
2010,08,12,03,26,25.70
2010,08,12,03,27,25.70
2010,08,12,03,28,25.70
2010,08,12,03,29,25.70
2010,08,12,03,30,25.70
2010,08,12,03,31,25.70
2010,08,12,03,32,25.70
2010,08,12,03,33,25.70
2010,08,12,03,34,25.70
2010,08,12,03,35,25.70
2010,08,12,03,36,25.70
2010,08,12,03,37,25.70
2010,08,12,03,38,25.70
2010,08,12,03,39,25.70
2010,08,12,03,40,25.70
2010,08,12,03,41,25.70
2010,08,12,03,42,25.70
2010,08,12,03,43,25.70
2010,08,12,03,44,25.70
2010,08,12,03,45,25.70
2010,08,12,03,46,25.70
2010,08,12,03,47,25.70
2010,08,12,03,48,25.70
2010,08,12,03,49,25.70
2010,08,12,03,50,25.70
2010,08,12,03,51,25.70
2010,08,12,03,52,25.70
2010,08,12,03,53,25.70
2010,08,12,03,54,25.70
2010,08,12,03,55,25.70
2010,08,12,03,56,25.70
2010,08,12,03,57,25.70
2010,08,12,03,58,25.70
2010,08,12,03,59,25.70
2010,08,12,04,00,25.70
2010,08,12,04,01,25.70
2010,08,12,04,02,25.70
2010,08,12,04,03,25.70
2010,08,12,04,04,25.70
2010,08,12,04,05,25.70
2010,08,12,04,06,25.70
2010,08,12,04,07,25.70
2010,08,12,04,08,25.70
2010,08,12,04,09,25.70
2010,08,12,04,10,25.70
2010,08,12,04,11,25.70
2010,08,12,04,12,25.70
2010,08,12,04,13,25.70
2010,08,12,04,14,25.70
2010,08,12,04,15,25.70
2010,08,12,04,16,25.70
2010,08,12,04,17,25.70
2010,08,12,04,18,25.70
2010,08,12,04,19,25.70
2010,08,12,04,20,25.70
2010,08,12,04,21,25.70
2010,08,12,04,22,25.70
2010,08,12,04,23,25.70
2010,08,12,04,24,25.70
2010,08,12,04,25,25.70
2010,08,12,04,26,25.70
2010,08,12,04,27,25.70
2010,08,12,04,28,25.70
2010,08,12,04,29,25.70
2010,08,12,04,30,25.70
2010,08,12,04,31,25.70
2010,08,12,04,32,25.70
2010,08,12,04,33,25.70
2010,08,12,04,34,25.70
2010,08,12,04,35,25.70
2010,08,12,04,36,25.70
2010,08,12,04,37,25.70
2010,08,12,04,38,25.70
2010,08,12,04,39,25.70
2010,08,12,04,40,25.70
2010,08,12,04,41,25.70
2010,08,12,04,42,25.70
2010,08,12,04,43,25.70
2010,08,12,04,44,25.70
2010,08,12,04,45,25.70
2010,08,12,04,46,25.70
2010,08,12,04,47,25.70
2010,08,12,04,48,25.70
2010,08,12,04,49,25.70
2010,08,12,04,50,25.70
2010,08,12,04,51,25.70
2010,08,12,04,52,25.70
2010,08,12,04,53,25.70
2010,08,12,04,54,25.70
2010,08,12,04,55,25.70
2010,08,12,04,56,25.70
2010,08,12,04,57,25.70
2010,08,12,04,58,25.70
2010,08,12,04,59,25.70
2010,08,12,05,00,25.70
2010,08,12,05,01,25.70
2010,08,12,05,02,25.70
2010,08,12,05,03,25.70
2010,08,12,05,04,25.70
2010,08,12,05,05,25.70
2010,08,12,05,06,25.70
2010,08,12,05,07,25.70
2010,08,12,05,08,25.70
2010,08,12,05,09,25.70
2010,08,12,05,10,25.70
2010,08,12,05,11,25.70
2010,08,12,05,12,25.70
2010,08,12,05,13,25.70
2010,08,12,05,14,25.70
2010,08,12,05,15,25.70
2010,08,12,05,16,25.70
2010,08,12,05,17,25.70
2010,08,12,05,18,25.70
2010,08,12,05,19,25.70
2010,08,12,05,20,25.70
2010,08,12,05,21,25.70
2010,08,12,05,22,25.70
2010,08,12,05,23,25.70
2010,08,12,05,24,25.70
2010,08,12,05,25,25.70
2010,08,12,05,26,25.70
2010,08,12,05,27,25.70
2010,08,12,05,28,25.70
2010,08,12,05,29,25.70
2010,08,12,05,30,25.70
2010,08,12,05,31,25.70
2010,08,12,05,32,25.70
2010,08,12,05,33,25.70
2010,08,12,05,34,25.70
2010,08,12,05,35,25.70
2010,08,12,05,36,25.70
2010,08,12,05,37,25.70
2010,08,12,05,38,25.70
2010,08,12,05,39,25.70
2010,08,12,05,40,25.70
2010,08,12,05,41,25.70
2010,08,12,05,42,25.70
2010,08,12,05,43,25.70
2010,08,12,05,44,25.70
2010,08,12,05,45,25.70
2010,08,12,05,46,25.70
2010,08,12,05,47,25.70
2010,08,12,05,48,25.70
2010,08,12,05,49,25.70
2010,08,12,05,50,25.70
2010,08,12,05,51,25.70
2010,08,12,05,52,25.70
2010,08,12,05,53,25.70
2010,08,12,05,54,25.70
2010,08,12,05,55,25.70
2010,08,12,05,56,25.70
2010,08,12,05,57,25.70
2010,08,12,05,58,25.70
2010,08,12,05,59,25.70
2010,08,12,06,00,25.70
2010,08,12,06,01,25.70
2010,08,12,06,02,25.70
2010,08,12,06,03,25.70
2010,08,12,06,04,25.70
2010,08,12,06,05,25.70
2010,08,12,06,06,25.70
2010,08,12,06,07,25.70
2010,08,12,06,08,25.70
2010,08,12,06,09,25.70
2010,08,12,06,10,25.70
2010,08,12,06,11,25.70
2010,08,12,06,12,25.70
2010,08,12,06,13,25.70
2010,08,12,06,14,25.70
2010,08,12,06,15,25.70
2010,08,12,06,16,25.70
2010,08,12,06,17,25.70
2010,08,12,06,18,25.70
2010,08,12,06,19,25.70
2010,08,12,06,20,25.70
2010,08,12,06,21,25.70
2010,08,12,06,22,25.70
2010,08,12,06,23,25.70
2010,08,12,06,24,25.70
2010,08,12,06,25,25.70
2010,08,12,06,26,25.70
2010,08,12,06,27,25.70
2010,08,12,06,28,25.70
2010,08,12,06,29,25.70
2010,08,12,06,30,25.70
2010,08,12,06,31,25.70
2010,08,12,06,32,25.70
2010,08,12,06,33,25.70
2010,08,12,06,34,25.70
2010,08,12,06,35,25.70
2010,08,12,06,36,25.70
2010,08,12,06,37,25.70
2010,08,12,06,38,25.70
2010,08,12,06,39,25.70
2010,08,12,06,40,25.70
2010,08,12,06,41,25.70
2010,08,12,06,42,25.70
2010,08,12,06,43,25.70
2010,08,12,06,44,25.70
2010,08,12,06,45,25.70
2010,08,12,06,46,25.70
2010,08,12,06,47,25.70
2010,08,12,06,48,25.70
2010,08,12,06,49,25.70
2010,08,12,06,50,25.70
2010,08,12,06,51,25.70
2010,08,12,06,52,25.70
2010,08,12,06,53,25.70
2010,08,12,06,54,25.70
2010,08,12,06,55,25.70
2010,08,12,06,56,25.70
2010,08,12,06,57,25.70
2010,08,12,06,58,25.70
2010,08,12,06,59,25.70
2010,08,12,07,00,25.70
2010,08,12,07,01,25.70
2010,08,12,07,02,25.70
2010,08,12,07,03,25.70
2010,08,12,07,04,25.70
2010,08,12,07,05,25.70
2010,08,12,07,06,25.70
2010,08,12,07,07,25.70
2010,08,12,07,08,25.70
2010,08,12,07,09,25.70
2010,08,12,07,10,25.70
2010,08,12,07,11,25.70
2010,08,12,07,12,25.70
2010,08,12,07,13,25.70
2010,08,12,07,14,25.70
2010,08,12,07,15,25.70
2010,08,12,07,16,25.70
2010,08,12,07,17,25.70
2010,08,12,07,18,25.70
2010,08,12,07,19,25.70
2010,08,12,07,20,25.70
2010,08,12,07,21,25.70
2010,08,12,07,22,25.70
2010,08,12,07,23,25.70
2010,08,12,07,24,25.70
2010,08,12,07,25,25.70
2010,08,12,07,26,25.70
2010,08,12,07,27,25.70
2010,08,12,07,28,25.70
2010,08,12,07,29,25.70
2010,08,12,07,30,25.70
2010,08,12,07,31,25.70
2010,08,12,07,32,25.70
2010,08,12,07,33,25.70
2010,08,12,07,34,25.70
2010,08,12,07,35,25.70
2010,08,12,07,36,25.70
2010,08,12,07,37,25.70
2010,08,12,07,38,25.70
2010,08,12,07,39,25.70
2010,08,12,07,40,25.70
2010,08,12,07,41,25.70
2010,08,12,07,42,25.70
2010,08,12,07,43,25.70
2010,08,12,07,44,25.70
2010,08,12,07,45,25.70
2010,08,12,07,46,25.70
2010,08,12,07,47,25.70
2010,08,12,07,48,25.70
2010,08,12,07,49,25.70
2010,08,12,07,50,25.70
2010,08,12,07,51,25.70
2010,08,12,07,52,25.70
2010,08,12,07,53,25.70
2010,08,12,07,54,25.70
2010,08,12,07,55,25.70
2010,08,12,07,56,25.70
2010,08,12,07,57,25.70
2010,08,12,07,58,25.70
2010,08,12,07,59,25.70
2010,08,12,08,00,25.70
2010,08,12,08,01,25.70
2010,08,12,08,02,25.70
2010,08,12,08,03,25.70
2010,08,12,08,04,25.70
2010,08,12,08,05,25.70
2010,08,12,08,06,25.70
2010,08,12,08,07,25.70
2010,08,12,08,08,25.70
2010,08,12,08,09,25.70
2010,08,12,08,10,25.70
2010,08,12,08,11,25.70
2010,08,12,08,12,25.70
2010,08,12,08,13,25.70
2010,08,12,08,14,25.70
2010,08,12,08,15,25.70
2010,08,12,08,16,25.70
2010,08,12,08,17,25.70
2010,08,12,08,18,25.70
2010,08,12,08,19,25.70
2010,08,12,08,20,25.70
2010,08,12,08,21,25.70
2010,08,12,08,22,25.70
2010,08,12,08,23,25.70
2010,08,12,08,24,25.70
2010,08,12,08,25,25.70
2010,08,12,08,26,25.70
2010,08,12,08,27,25.70
2010,08,12,08,28,25.70
2010,08,12,08,29,25.70
2010,08,12,08,30,25.70
2010,08,12,08,31,25.70
2010,08,12,08,32,25.70
2010,08,12,08,33,25.70
2010,08,12,08,34,25.70
2010,08,12,08,35,25.70
2010,08,12,08,36,25.70
2010,08,12,08,37,25.70
2010,08,12,08,38,25.70
2010,08,12,08,39,25.70
2010,08,12,08,40,25.70
2010,08,12,08,41,25.70
2010,08,12,08,42,25.70
2010,08,12,08,43,25.70
2010,08,12,08,44,25.70
2010,08,12,08,45,25.70
2010,08,12,08,46,25.70
2010,08,12,08,47,25.70
2010,08,12,08,48,25.70
2010,08,12,08,49,25.70
2010,08,12,08,50,25.70
2010,08,12,08,51,25.70
2010,08,12,08,52,25.70
2010,08,12,08,53,25.70
2010,08,12,08,54,25.70
2010,08,12,08,55,25.70
2010,08,12,08,56,25.70
2010,08,12,08,57,25.70
2010,08,12,08,58,25.70
2010,08,12,08,59,25.70
2010,08,12,09,00,25.70
2010,08,12,09,01,25.70
2010,08,12,09,05,15.20
2010,08,12,09,06,15.20
2010,08,12,09,07,15.20
2010,08,12,09,08,15.20
2010,08,12,09,09,15.10
2010,08,12,09,10,15.10
2010,08,12,09,17,15.00
2010,08,12,09,18,14.90
2010,08,12,09,19,15.00
2010,08,12,09,20,15.00
2010,08,12,09,21,15.00
2010,08,12,09,22,15.00
2010,08,12,09,23,15.00
2010,08,12,09,24,15.00
2010,08,12,09,25,15.00
2010,08,12,09,26,15.00
2010,08,12,09,27,15.00
2010,08,12,09,28,15.10
2010,08,12,09,29,15.10
2010,08,12,09,30,15.20
2010,08,12,09,31,15.20
2010,08,12,09,32,15.20
2010,08,12,09,33,15.20
2010,08,12,09,34,15.30
2010,08,12,09,35,15.20
2010,08,12,09,36,15.20
2010,08,12,09,37,15.20
2010,08,12,09,38,15.20
2010,08,12,09,39,15.30
2010,08,12,09,40,15.30
2010,08,12,09,41,15.30
2010,08,12,09,42,15.30
2010,08,12,09,43,15.30
2010,08,12,09,44,15.30
2010,08,12,09,45,15.30
2010,08,12,09,46,15.30
2010,08,12,09,47,15.40
2010,08,12,09,48,15.40
2010,08,12,09,49,15.50
2010,08,12,09,50,15.60
2010,08,12,09,51,15.70
2010,08,12,09,52,15.70
2010,08,12,09,53,15.80
2010,08,12,09,54,15.80
2010,08,12,09,55,15.90
2010,08,12,09,56,15.90
2010,08,12,09,57,16.00
2010,08,12,09,58,16.10
2010,08,12,09,59,16.20
2010,08,12,10,00,16.20
2010,08,12,10,01,16.30
2010,08,12,10,02,16.40
2010,08,12,10,03,16.40
2010,08,12,10,04,16.50
2010,08,12,10,05,16.60
2010,08,12,10,06,16.60
2010,08,12,10,07,16.70
2010,08,12,10,08,16.70
2010,08,12,10,09,16.70
2010,08,12,10,10,16.80
2010,08,12,10,11,16.80
2010,08,12,10,12,16.80
2010,08,12,10,13,16.90
2010,08,12,10,14,17.00
2010,08,12,10,15,17.00
2010,08,12,10,16,17.10
2010,08,12,10,17,17.20
2010,08,12,10,18,17.20
2010,08,12,10,19,17.30
2010,08,12,10,20,17.30
2010,08,12,10,21,17.40
2010,08,12,10,22,17.50
2010,08,12,10,23,17.60
2010,08,12,10,24,17.60
2010,08,12,10,25,17.60
2010,08,12,10,26,17.60
2010,08,12,10,27,17.60
2010,08,12,10,28,17.60
2010,08,12,10,29,17.70
2010,08,12,10,30,17.70
2010,08,12,10,31,17.80
2010,08,12,10,32,17.80
2010,08,12,10,33,17.90
2010,08,12,10,34,18.00
2010,08,12,10,35,18.10
2010,08,12,10,36,18.10
2010,08,12,10,37,18.00
2010,08,12,10,38,18.00
2010,08,12,10,39,18.10
2010,08,12,10,40,18.10
2010,08,12,10,41,18.10
2010,08,12,10,42,18.20
2010,08,12,10,43,18.20
2010,08,12,10,44,18.20
2010,08,12,10,45,18.30
2010,08,12,10,46,18.30
2010,08,12,10,47,18.40
2010,08,12,10,48,18.40
2010,08,12,10,49,18.50
2010,08,12,10,50,18.60
2010,08,12,10,51,18.70
2010,08,12,10,52,18.80
2010,08,12,10,53,18.80
2010,08,12,10,54,18.90
2010,08,12,10,55,18.90
2010,08,12,10,56,19.00
2010,08,12,10,57,19.00
2010,08,12,10,58,18.90
2010,08,12,10,59,18.90
2010,08,12,11,00,18.90
2010,08,12,11,01,18.90
2010,08,12,11,02,19.00
2010,08,12,11,03,19.10
2010,08,12,11,04,19.20
2010,08,12,11,05,19.20
2010,08,12,11,06,19.20
2010,08,12,11,07,19.30
2010,08,12,11,08,19.30
2010,08,12,11,09,19.30
2010,08,12,11,10,19.40
2010,08,12,11,11,19.50
2010,08,12,11,12,19.60
2010,08,12,11,13,19.60
2010,08,12,11,14,19.70
2010,08,12,11,15,19.80
2010,08,12,11,16,19.80
2010,08,12,11,17,19.90
2010,08,12,11,18,19.90
2010,08,12,11,19,20.00
2010,08,12,11,20,20.10
2010,08,12,11,21,20.00
2010,08,12,11,22,20.00
2010,08,12,11,23,20.00
2010,08,12,11,24,20.00
2010,08,12,11,25,20.00
2010,08,12,11,26,20.10
2010,08,12,11,27,20.10
2010,08,12,11,28,20.10
2010,08,12,11,29,20.20
2010,08,12,11,30,20.20
2010,08,12,11,31,20.30
2010,08,12,11,32,20.30
2010,08,12,11,33,20.40
2010,08,12,11,34,20.40
2010,08,12,11,35,20.40
2010,08,12,11,36,20.40
2010,08,12,11,37,20.40
2010,08,12,11,38,20.40
2010,08,12,11,39,20.50
2010,08,12,11,40,20.60
2010,08,12,11,41,20.60
2010,08,12,11,42,20.70
2010,08,12,11,43,20.70
2010,08,12,11,44,20.70
2010,08,12,11,45,20.70
2010,08,12,11,46,20.80
2010,08,12,11,47,20.80
2010,08,12,11,48,20.90
2010,08,12,11,49,21.10
2010,08,12,11,50,21.20
2010,08,12,11,51,21.20
2010,08,12,11,52,21.30
2010,08,12,11,53,21.30
2010,08,12,11,54,21.40
2010,08,12,11,55,21.50
2010,08,12,11,56,21.60
2010,08,12,11,57,21.70
2010,08,12,11,58,21.80
2010,08,12,11,59,21.80
2010,08,12,12,00,21.80
2010,08,12,12,01,21.90
2010,08,12,12,02,21.90
2010,08,12,12,03,22.10
2010,08,12,12,04,22.10
2010,08,12,12,05,22.20
2010,08,12,12,06,22.20
2010,08,12,12,07,22.20
2010,08,12,12,08,22.20
2010,08,12,12,09,22.20
2010,08,12,12,10,22.20
2010,08,12,12,11,22.10
2010,08,12,12,12,22.20
2010,08,12,12,13,22.20
2010,08,12,12,14,22.20
2010,08,12,12,15,22.20
2010,08,12,12,16,22.30
2010,08,12,12,17,22.30
2010,08,12,12,18,22.20
2010,08,12,12,19,22.20
2010,08,12,12,20,22.30
2010,08,12,12,21,22.30
2010,08,12,12,22,22.40
2010,08,12,12,23,22.40
2010,08,12,12,24,22.60
2010,08,12,12,25,22.60
2010,08,12,12,26,22.70
2010,08,12,12,27,22.80
2010,08,12,12,28,22.80
2010,08,12,12,29,22.80
2010,08,12,12,30,22.90
2010,08,12,12,31,22.90
2010,08,12,12,32,22.90
2010,08,12,12,33,23.10
2010,08,12,12,34,23.20
2010,08,12,12,35,23.20
2010,08,12,12,36,23.30
2010,08,12,12,37,23.40
2010,08,12,12,38,23.50
2010,08,12,12,39,23.60
2010,08,12,12,40,23.70
2010,08,12,12,41,23.80
2010,08,12,12,42,24.00
2010,08,12,12,43,24.10
2010,08,12,12,44,24.20
2010,08,12,12,45,24.20
2010,08,12,12,46,24.20
2010,08,12,12,47,24.20
2010,08,12,12,48,24.20
2010,08,12,12,49,24.20
2010,08,12,12,50,24.10
2010,08,12,12,51,24.10
2010,08,12,12,52,24.10
2010,08,12,12,53,24.10
2010,08,12,12,54,24.10
2010,08,12,12,55,24.00
2010,08,12,12,56,23.90
2010,08,12,12,57,23.80
2010,08,12,12,58,23.70
2010,08,12,12,59,23.60
2010,08,12,13,00,23.70
2010,08,12,13,01,23.70
2010,08,12,13,02,23.70
2010,08,12,13,03,23.80
2010,08,12,13,04,23.90
2010,08,12,13,05,24.10
2010,08,12,13,06,24.20
2010,08,12,13,07,24.30
2010,08,12,13,08,24.40
2010,08,12,13,09,24.50
2010,08,12,13,10,24.60
2010,08,12,13,11,24.70
2010,08,12,13,12,24.80
2010,08,12,13,13,24.90
2010,08,12,13,14,25.00
2010,08,12,13,15,25.10
2010,08,12,13,16,25.20
2010,08,12,13,17,25.30
2010,08,12,13,18,25.30
2010,08,12,13,19,25.30
2010,08,12,13,20,25.40
2010,08,12,13,21,25.40
2010,08,12,13,22,25.40
2010,08,12,13,23,25.40
2010,08,12,13,24,25.40
2010,08,12,13,25,25.40
2010,08,12,13,26,25.40
2010,08,12,13,27,25.40
2010,08,12,13,28,25.30
2010,08,12,13,29,25.30
2010,08,12,13,30,25.40
2010,08,12,13,31,25.40
2010,08,12,13,32,25.40
2010,08,12,13,33,25.40
2010,08,12,13,34,25.40
2010,08,12,13,35,25.40
2010,08,12,13,36,25.40
2010,08,12,13,37,25.40
2010,08,12,13,38,25.40
2010,08,12,13,39,25.40
2010,08,12,13,40,25.40
2010,08,12,13,41,25.40
2010,08,12,13,42,25.40
2010,08,12,13,43,25.40
2010,08,12,13,44,25.40
2010,08,12,13,45,25.50
2010,08,12,13,46,25.50
2010,08,12,13,47,25.40
2010,08,12,13,48,25.40
2010,08,12,13,49,25.50
2010,08,12,13,50,25.60
2010,08,12,13,51,25.60
2010,08,12,13,52,25.60
2010,08,12,13,53,25.70
2010,08,12,13,54,25.80
2010,08,12,13,55,25.80
2010,08,12,13,56,25.80
2010,08,12,13,57,25.80
2010,08,12,13,58,25.80
2010,08,12,13,59,25.80
2010,08,12,14,00,25.90
2010,08,12,14,01,25.90
2010,08,12,14,02,25.90
2010,08,12,14,03,25.90
2010,08,12,14,04,26.00
2010,08,12,14,05,26.10
2010,08,12,14,06,26.10
2010,08,12,14,07,26.00
2010,08,12,14,08,26.10
2010,08,12,14,09,26.00
2010,08,12,14,10,25.90
2010,08,12,14,11,25.90
2010,08,12,14,12,25.90
2010,08,12,14,13,25.90
2010,08,12,14,14,25.90
2010,08,12,14,15,25.90
2010,08,12,14,16,25.90
2010,08,12,14,17,25.90
2010,08,12,14,18,25.90
2010,08,12,14,19,25.90
2010,08,12,14,20,25.90
2010,08,12,14,21,25.90
2010,08,12,14,22,25.90
2010,08,12,14,23,25.90
2010,08,12,14,24,25.90
2010,08,12,14,25,25.90
2010,08,12,14,26,25.90
2010,08,12,14,27,25.90
2010,08,12,14,28,25.90
2010,08,12,14,29,25.90
2010,08,12,14,30,25.90
2010,08,12,14,31,26.00
2010,08,12,14,32,26.10
2010,08,12,14,33,26.10
2010,08,12,14,34,26.10
2010,08,12,14,35,26.20
2010,08,12,14,36,26.20
2010,08,12,14,37,26.20
2010,08,12,14,38,26.20
2010,08,12,14,39,26.20
2010,08,12,14,40,26.20
2010,08,12,14,41,26.20
2010,08,12,14,42,26.10
2010,08,12,14,43,26.10
2010,08,12,14,44,26.10
2010,08,12,14,45,26.10
2010,08,12,14,46,26.10
2010,08,12,14,47,26.10
2010,08,12,14,48,26.10
2010,08,12,14,49,26.10
2010,08,12,14,50,26.10
2010,08,12,14,51,26.10
2010,08,12,14,52,26.00
2010,08,12,14,53,25.90
2010,08,12,14,54,25.90
2010,08,12,14,55,25.90
2010,08,12,14,56,25.90
2010,08,12,14,57,25.90
2010,08,12,14,58,25.90
2010,08,12,14,59,25.90
2010,08,12,15,00,25.90
2010,08,12,15,01,25.90
2010,08,12,15,02,25.80
2010,08,12,15,03,25.80
2010,08,12,15,04,25.80
2010,08,12,15,05,25.70
2010,08,12,15,06,25.80
2010,08,12,15,07,25.80
2010,08,12,15,08,25.80
2010,08,12,15,09,25.80
2010,08,12,15,10,25.80
2010,08,12,15,11,25.80
2010,08,12,15,12,25.80
2010,08,12,15,13,25.70
2010,08,12,15,14,25.70
2010,08,12,15,15,25.70
2010,08,12,15,16,25.70
2010,08,12,15,17,25.70
2010,08,12,15,18,25.70
2010,08,12,15,19,25.80
2010,08,12,15,20,25.80
2010,08,12,15,21,25.80
2010,08,12,15,22,25.80
2010,08,12,15,23,25.80
2010,08,12,15,24,25.80
2010,08,12,15,25,25.80
2010,08,12,15,26,25.90
2010,08,12,15,27,25.90
2010,08,12,15,28,25.90
2010,08,12,15,29,25.90
2010,08,12,15,30,25.90
2010,08,12,15,31,25.90
2010,08,12,15,32,25.90
2010,08,12,15,33,26.00
2010,08,12,15,34,26.10
2010,08,12,15,35,26.20
2010,08,12,15,36,26.20
2010,08,12,15,37,26.20
2010,08,12,15,38,26.10
2010,08,12,15,39,26.00
2010,08,12,15,40,25.90
2010,08,12,15,41,25.90
2010,08,12,15,42,25.90
2010,08,12,15,43,25.90
2010,08,12,15,44,25.90
2010,08,12,15,45,25.90
2010,08,12,15,46,25.90
2010,08,12,15,47,25.90
2010,08,12,15,48,25.90
2010,08,12,15,49,25.90
2010,08,12,15,50,25.90
2010,08,12,15,51,25.90
2010,08,12,15,52,25.90
2010,08,12,15,53,25.90
2010,08,12,15,54,25.90
2010,08,12,15,55,26.00
2010,08,12,15,56,26.10
2010,08,12,15,57,26.10
2010,08,12,15,58,26.00
2010,08,12,15,59,26.00
2010,08,12,16,00,25.90
2010,08,12,16,01,25.90
2010,08,12,16,02,25.90
2010,08,12,16,03,25.90
2010,08,12,16,04,25.90
2010,08,12,16,05,25.90
2010,08,12,16,06,25.90
2010,08,12,16,07,25.90
2010,08,12,16,08,25.90
2010,08,12,16,09,25.90
2010,08,12,16,10,25.90
2010,08,12,16,11,25.90
2010,08,12,16,12,25.90
2010,08,12,16,13,25.90
2010,08,12,16,14,26.00
2010,08,12,16,15,26.00
2010,08,12,16,16,25.90
2010,08,12,16,17,25.90
2010,08,12,16,18,25.90
2010,08,12,16,19,25.90
2010,08,12,16,20,25.90
2010,08,12,16,21,25.90
2010,08,12,16,22,25.90
2010,08,12,16,23,26.00
2010,08,12,16,24,26.10
2010,08,12,16,25,26.10
2010,08,12,16,26,26.20
2010,08,12,16,27,26.30
2010,08,12,16,28,26.40
2010,08,12,16,29,26.60
2010,08,12,16,30,26.60
2010,08,12,16,31,26.80
2010,08,12,16,32,26.80
2010,08,12,16,33,26.90
2010,08,12,16,34,26.90
2010,08,12,16,35,26.90
2010,08,12,16,36,27.00
2010,08,12,16,37,27.00
2010,08,12,16,38,26.90
2010,08,12,16,39,26.80
2010,08,12,16,40,26.70
2010,08,12,16,41,26.70
2010,08,12,16,42,26.60
2010,08,12,16,43,26.50
2010,08,12,16,44,26.40
2010,08,12,16,45,26.40
2010,08,12,16,46,26.40
2010,08,12,16,47,26.40
2010,08,12,16,48,26.40
2010,08,12,16,49,26.30
2010,08,12,16,50,26.30
2010,08,12,16,51,26.20
2010,08,12,16,52,26.20
2010,08,12,16,53,26.20
2010,08,12,16,54,26.20
2010,08,12,16,55,26.10
2010,08,12,16,56,26.10
2010,08,12,16,57,25.90
2010,08,12,16,58,25.90
2010,08,12,16,59,25.90
2010,08,12,17,00,25.80
2010,08,12,17,01,25.70
2010,08,12,17,02,25.70
2010,08,12,17,03,25.70
2010,08,12,17,04,25.70
2010,08,12,17,05,25.70
2010,08,12,17,06,25.80
2010,08,12,17,07,25.80
2010,08,12,17,08,25.80
2010,08,12,17,09,25.80
2010,08,12,17,10,25.90
2010,08,12,17,11,25.90
2010,08,12,17,12,25.90
2010,08,12,17,13,25.80
2010,08,12,17,14,25.80
2010,08,12,17,15,25.80
2010,08,12,17,16,25.80
2010,08,12,17,17,25.80
2010,08,12,17,18,25.80
2010,08,12,17,19,25.80
2010,08,12,17,20,25.80
2010,08,12,17,21,25.70
2010,08,12,17,22,25.70
2010,08,12,17,23,25.60
2010,08,12,17,24,25.60
2010,08,12,17,25,25.60
2010,08,12,17,26,25.60
2010,08,12,17,27,25.60
2010,08,12,17,28,25.60